Limerick, Ireland

9:21 AM GMT on February 22, 2017 (GMT +0000)
Shannon

Weather History for EINN - March, 2013

Change the Weather History Date:

Monday, March 4, 2013

  Actual Average Record
Temperature  
Mean Temperature 41 °F -  
Max Temperature 44 °F 52 °F 57 °F (2003)
Min Temperature 38 °F 38 °F 21 °F (2006)
Degree Days  
Heating Degree Days 24    
Moisture  
Dew Point 37 °F    
Average Humidity 83    
Maximum Humidity 93    
Minimum Humidity 74    
Precipitation  
Precipitation 0.00 in 0.09 in - ()
Sea Level Pressure  
Sea Level Pressure 29.81 in    
Wind  
Wind Speed 8 mph ()    
Max Wind Speed 14 mph    
Max Gust Speed -    
Visibility 4.0 miles    
Events Rain    
Averages and records for this station are not official NWS values.
T = Trace of Precipitation, MM = Missing Value Source: Averaged Metar Reports

Daily Weather History Graph

Daily Weather History Graph

Search for Another Location

Airport or City:

Trip Planner

Search our weather history database for the weather conditions in past years. The results will help you decide how hot, cold, wet, or windy it might be!

Date:

Astronomy

Mar. 04, 2013 Rise Set
Actual Time 7:15 AM GMT 6:20 PM GMT
Civil Twilight 6:41 AM GMT 6:54 PM GMT
Nautical Twilight 6:01 AM GMT 7:34 PM GMT
Astronomical Twilight 5:21 AM GMT 8:14 PM GMT
Moon 1:43 AM GMT (3/4) 10:15 AM GMT (3/4)
Length of Visible Light 12h 13m
Length of Day
11h 04m
Waning Gibbous, 55% of the Moon is Illuminated
Mar 4
Waning Gibbous
Mar 4
Last Quarter
Mar 11
New
Mar 19
First Quarter
Mar 27
Full

Hourly Weather History & Observations

Time (GMT) Temp. Windchill Dew Point Humidity Pressure Visibility Wind Dir Wind Speed Gust Speed Precip Events Conditions
12:00 AM 38 °F - 33 °F 74% 30.01 in 9 mi East 6.7 mph - -   Mist
12:00 AM 39.2 °F 34.2 °F 32.0 °F 75% 30.01 in 6.2 mi East 6.9 mph - N/A   Mostly Cloudy
12:30 AM 39.2 °F 33.6 °F 32.0 °F 75% 29.98 in 6.2 mi East 8.1 mph - N/A   Mostly Cloudy
1:00 AM 39.2 °F 34.2 °F 32.0 °F 75% 29.98 in 6.2 mi ENE 6.9 mph - N/A   Mostly Cloudy
1:30 AM 39.2 °F 34.2 °F 33.8 °F 81% 29.98 in 6.2 mi East 6.9 mph - N/A   Mostly Cloudy
2:00 AM 39.2 °F 35.0 °F 33.8 °F 81% 29.95 in 6.2 mi East 5.8 mph - N/A   Mostly Cloudy
2:30 AM 39.2 °F 34.2 °F 33.8 °F 81% 29.95 in 6.2 mi East 6.9 mph - N/A   Mostly Cloudy
3:00 AM 39.2 °F 34.2 °F 33.8 °F 81% 29.95 in 6.2 mi East 6.9 mph - N/A   Mostly Cloudy
3:30 AM 39.2 °F 35.0 °F 33.8 °F 81% 29.92 in 6.2 mi East 5.8 mph - N/A   Mostly Cloudy
4:00 AM 39.2 °F 35.0 °F 33.8 °F 81% 29.92 in 6.2 mi NE 5.8 mph - N/A   Mostly Cloudy
4:30 AM 39.2 °F 35.0 °F 33.8 °F 81% 29.89 in 6.2 mi NE 5.8 mph - N/A   Mostly Cloudy
5:00 AM 39.2 °F 34.2 °F 33.8 °F 81% 29.89 in 6.2 mi NE 6.9 mph - N/A   Mostly Cloudy
5:30 AM 39.2 °F 35.0 °F 33.8 °F 81% 29.89 in 6.2 mi ENE 5.8 mph - N/A   Mostly Cloudy
6:00 AM 39 °F - 34 °F 75% 29.88 in 9 mi NE 6.7 mph - -   Mist
6:00 AM 39.2 °F 35.0 °F 33.8 °F 81% 29.86 in 6.2 mi NE 5.8 mph - N/A   Mostly Cloudy
6:30 AM 39.2 °F 35.0 °F 33.8 °F 81% 29.86 in 6.2 mi East 5.8 mph - N/A   Mostly Cloudy
7:00 AM 41.0 °F 38.0 °F 33.8 °F 76% 29.86 in 5.0 mi ENE 4.6 mph - N/A   Mostly Cloudy
7:30 AM 41.0 °F 35.8 °F 33.8 °F 76% 29.86 in 5.0 mi East 8.1 mph - N/A   Mostly Cloudy
8:00 AM 41.0 °F 36.4 °F 33.8 °F 76% 29.86 in 5.0 mi East 6.9 mph - N/A   Mostly Cloudy
8:30 AM 41.0 °F 35.8 °F 35.6 °F 81% 29.86 in 5.0 mi East 8.1 mph - N/A   Mostly Cloudy
9:00 AM 41.0 °F 35.8 °F 35.6 °F 81% 29.83 in 5.0 mi East 8.1 mph - N/A   Mostly Cloudy
9:30 AM 41.0 °F 35.8 °F 35.6 °F 81% 29.83 in 5.0 mi East 8.1 mph - N/A   Mostly Cloudy
10:00 AM 41.0 °F 34.3 °F 37.4 °F 87% 29.83 in 5.0 mi East 11.5 mph - N/A   Mostly Cloudy
10:30 AM 41.0 °F 34.3 °F 37.4 °F 87% 29.83 in 5.0 mi East 11.5 mph - N/A   Mostly Cloudy
11:00 AM 41.0 °F 35.2 °F 37.4 °F 87% 29.83 in 4.3 mi East 9.2 mph - N/A   Mostly Cloudy
11:30 AM 41.0 °F 34.3 °F 37.4 °F 87% 29.80 in 4.3 mi East 11.5 mph - N/A   Mostly Cloudy
12:00 PM 42 °F - 38 °F 81% 29.81 in 4 mi East 13.4 mph - - Rain Light Drizzle
12:00 PM 42.8 °F 35.8 °F 37.4 °F 81% 29.80 in 4.3 mi East 13.8 mph - N/A   Mostly Cloudy
12:30 PM 41.0 °F 33.9 °F 39.2 °F 93% 29.80 in 3.7 mi East 12.7 mph - N/A   Overcast
1:00 PM 42.8 °F 37.0 °F 39.2 °F 87% 29.77 in 2.8 mi East 10.4 mph - N/A   Mostly Cloudy
1:30 PM 42.8 °F 36.2 °F 39.2 °F 87% 29.77 in 2.8 mi East 12.7 mph - N/A   Mostly Cloudy
2:00 PM 42.8 °F 37.0 °F 41.0 °F 93% 29.74 in 1.6 mi East 10.4 mph - N/A   Light Drizzle
2:30 PM 42.8 °F 37.5 °F 41.0 °F 93% 29.74 in 0.9 mi East 9.2 mph - N/A   Light Drizzle
3:00 PM 42.8 °F 37.0 °F 41.0 °F 93% 29.74 in 0.9 mi East 10.4 mph - N/A   Light Drizzle
3:30 PM 42.8 °F 37.5 °F 41.0 °F 93% 29.71 in 1.2 mi East 9.2 mph - N/A   Light Drizzle
4:00 PM 42.8 °F 37.0 °F 41.0 °F 93% 29.71 in 1.6 mi East 10.4 mph - N/A   Light Drizzle
4:30 PM 42.8 °F 38.0 °F 41.0 °F 93% 29.71 in 1.9 mi East 8.1 mph - N/A   Light Drizzle
5:00 PM 44.6 °F 39.7 °F 39.2 °F 81% 29.71 in 1.9 mi East 9.2 mph - N/A   Light Drizzle
5:30 PM 44.6 °F 39.7 °F 39.2 °F 81% 29.71 in 1.2 mi ESE 9.2 mph - N/A   Light Drizzle
6:00 PM 44 °F - 40 °F 80% 29.73 in 1 mi ESE 8.9 mph - - Rain Light Drizzle
6:00 PM 44.6 °F 39.7 °F 39.2 °F 81% 29.71 in 1.2 mi ESE 9.2 mph - N/A   Overcast
6:30 PM 44.6 °F 40.2 °F 39.2 °F 81% 29.71 in 1.2 mi East 8.1 mph - N/A   Mostly Cloudy
7:00 PM 44.6 °F 39.7 °F 39.2 °F 81% 29.71 in 3.1 mi East 9.2 mph - N/A   Mostly Cloudy
7:30 PM 42.8 °F 36.6 °F 39.2 °F 87% 29.71 in 2.2 mi East 11.5 mph - N/A   Mostly Cloudy
8:00 PM 42.8 °F 36.6 °F 39.2 °F 87% 29.71 in 2.2 mi ESE 11.5 mph - N/A   Mostly Cloudy
8:30 PM 42.8 °F 36.6 °F 39.2 °F 87% 29.71 in 2.5 mi ESE 11.5 mph - N/A   Mostly Cloudy
9:00 PM 42.8 °F 37.5 °F 39.2 °F 87% 29.71 in 2.5 mi SE 9.2 mph - N/A   Mostly Cloudy
9:30 PM 42.8 °F 36.2 °F 39.2 °F 87% 29.71 in 2.5 mi ESE 12.7 mph - N/A   Overcast
10:00 PM 42.8 °F 37.0 °F 37.4 °F 81% 29.71 in 2.5 mi ESE 10.4 mph - N/A   Overcast
10:30 PM 42.8 °F 37.5 °F 37.4 °F 81% 29.68 in 2.5 mi ESE 9.2 mph - N/A   Overcast
11:00 PM 42.8 °F 36.2 °F 37.4 °F 81% 29.68 in 2.5 mi ESE 12.7 mph - N/A   Mostly Cloudy
11:30 PM 41.0 °F 34.3 °F 37.4 °F 87% 29.68 in 2.5 mi ESE 11.5 mph - N/A   Mostly Cloudy